Location: Newark
(22.3828°N, 114.1972°E)
Time: 10:41:07
(UTC+00:00)

Hubble Space Telescope - Visible Passes

Search period start: 12 December 2019 00:00
Search period end: 22 December 2019 00:00
Orbit: 536 x 540 km, 28.5° (Epoch: 11 December)

Date Brightness Start Highest point End Pass type
(mag) Time Alt. Az. Time Alt. Az. Time Alt. Az.
12 Dec 1.5 21:25:59 24° SW 21:28:08 49° SSE 21:32:09 10° E visible
13 Dec 1.0 21:16:43 51° SSW 21:17:31 65° SSE 21:21:38 10° ENE visible
14 Dec 0.9 21:07:17 73° E 21:07:17 73° E 21:11:04 10° ENE visible
15 Dec 1.8 20:57:42 41° ENE 20:57:42 41° ENE 21:00:29 10° ENE visible
16 Dec 2.7 20:48:01 25° ENE 20:48:01 25° ENE 20:49:53 10° ENE visible
16 Dec 1.7 22:23:27 10° WNW 22:27:15 35° N 22:31:04 10° ENE visible
17 Dec 3.3 20:38:13 17° ENE 20:38:13 17° ENE 20:39:17 10° ENE visible
17 Dec 1.7 22:13:34 13° WNW 22:16:45 34° N 22:20:33 10° ENE visible
18 Dec 3.8 20:28:22 12° ENE 20:28:22 12° ENE 20:28:40 10° ENE visible
18 Dec 1.7 22:03:43 18° NW 22:06:15 34° N 22:10:03 10° ENE visible
19 Dec 1.7 21:53:48 22° NW 21:55:44 35° N 21:59:34 10° ENE visible
20 Dec 1.6 21:43:51 28° NW 21:45:14 37° N 21:49:06 10° ENE visible
21 Dec 1.5 21:33:53 36° NNW 21:34:43 40° N 21:38:38 10° E visible
